SCP
0 0 0 0 0 0 0 0 0 0 0 0 0 0 0 0 0 0 0 0 0 0 -0 -0 0 0 0 0 0 0 0 0 0 0 0 0 0 0 0 0 0 0 0
0 0 0 0 0 0 0 0 0 0 0 0 0 0 0 0 0 0 0 0 0 0 -0 -0 0 0 0 0 0 0 0 0 0 0 0 0 0 0 0 0 0 0 0
0 0 0 0 0 0 0 0 0 0 0 0 0 0 0 0 0 0 0 0 0 -0 -0 -0 0 0 0 0 0 0 0 0 0 0 0 0 0 0 0 0 0 0 0
0 0 0 0 0 0 0 0 0 0 0 0 0 0 0 0 0 0 0 -0 -0 -0 -0 0 0 0 0 0 0 0 0 0 0 0 0 0 0 0 0 0 0 0 0
0 0 0 0 0 0 0 0 0 0 0 0 0 0 0 0 0 0 0 0 -0 -0 0 0 0 0 0 0 0 0 0 0 0 0 0 0 0 0 0 0 0 0 0
0 0 0 0 0 0 0 0 0 0 0 0 0 0 0 0 0 0 0 0 0 0 0 0 0 0 0 0 0 0 0 0 0 0 0 0 0 0 0 0 0 0 0
0 0 0 0 0 0 0 0 0 0 0 0 0 0 0 0 0 0 0 0 0 0 0 0 0 0 0 0 0 0 0 0 0 0 0 0 0 0 0 0 0 0 0
0 0 0 0 0 0 0 0 0 0 0 0 0 0 0 0 0 0 0 0 0 0 0 0 0 0 0 0 0 0 0 0 0 0 0 0 0 0 0 0 0 0 0
0 0 0 0 0 0 0 0 0 0 0 0 0 0 0 0 0 0 0 0 0 0 0 0 0 0 0 0 0 0 0 0 0 0 0 0 0 0 0 0 0 0 0
0 0 0 0 0 0 0 0 0 0 0 0 0 0 0 0 0 0 0 0 0 0 0 0 0 0 0 0 0 0 0 0 0 0 0 0 0 0 0 0 0 0 0
0 0 0 0 0 0 0 0 0 0 0 0 0 0 0 0 0 0 0 0 0 0 0 0 0 0 0 0 0 0 0 0 0 0 0 0 0 0 0 0 0 0 0
0 0 0 0 0 0 0 0 0 0 0 0 0 0 0 0 0 0 0 0 0 0 0 0 0 0 0 0 0 0 0 0 0 0 0 0 0 0 0 0 0 0 0
0 0 0 0 0 0 0 0 0 0 0 0 0 -0 -0 0 0 0 0 0 0 0 0 0 0 0 0 0 0 0 0 0 0 0 0 0 0 0 0 0 0 0 0
0 0 0 0 0 0 0 0 0 0 0 0 0 0 0 0 0 0 0 0 0 0 0 0 0 0 0 0 0 0 0 0 0 0 0 0 0 0 0 0 0 0 0
0 0 0 0 0 0 0 0 0 0 0 0 0 0 0 0 0 0 0 0 0 0 0 0 0 0 0 0 0 0 0 0 0 0 0 0 0 0 0 0 0 0 0
0 0 0 0 0 0 0 0 0 0 0 0 0 0 0 0 0 0 0 0 0 0 0 0 0 0 0 0 0 0 0 0 0 0 0 0 0 0 0 0 0 0 0
0 0 0 0 0 0 0 0 0 0 0 0 0 0 0 0 0 0 0 0 0 0 0 0 0 0 0 0 0 0 0 0 0 0 0 0 0 0 0 0 0 0 0
0 0 0 0 0 0 0 0 0 0 0 0 0 0 0 0 0 0 0 0 0 0 0 0 0 0 0 0 0 0 0 0 0 0 0 0 0 0 0 0 0 0 0
0 0 0 0 0 0 0 0 0 0 0 0 0 0 0 0 0 0 0 0 0 0 0 0 0 0 0 0 0 0 0 0 0 0 0 0 0 0 0 0 0 0 0
0 0 0 0 0 0 0 0 0 0 0 0 0 0 0 0 0 0 0 0 0 0 0 0 0 0 0 0 0 0 0 0 0 0 0 0 0 0 0 0 0 0 0
0 0 0 0 0 0 0 0 0 0 0 0 0 0 0 0 0 0 0 0 0 0 0 0 0 0 0 0 0 0 0 0 0 0 0 0 0 0 0 0 0 0 0
0 0 0 0 0 0 0 0 0 0 0 0 0 0 0 0 0 0 0 0 0 0 0 0 0 0 0 0 0 0 0 0 0 0 0 0 0 0 0 -0 -0 -0 0
0 0 0 0 0 0 0 0 0 0 0 0 0 0 0 0 0 0 0 0 0 0 0 0 0 0 0 0 0 0 0 0 0 0 0 0 0 0 0 -0 -0 -0 -0
0 0 0 0 0 0 0 0 0 0 0 0 0 0 0 0 0 0 0 0 0 0 0 0 0 0 0 0 0 0 0 0 0 0 0 0 0 0 0 -0 -0 -0 -0
0 0 0 0 0 0 0 0 0 0 0 0 0 0 0 0 0 0 0 0 0 0 0 0 0 0 0 0 0 0 0 0 0 0 0 0 0 -0 -0 -0 -0 0 0
0 0 0 0 0 0 0 0 0 0 0 0 0 0 0 0 0 0 0 0 0 0 0 0 0 0 0 0 0 0 0 0 0 0 -0 -0 -0 -0 -0 -0 0 0 0
Wind_Speed
3 2 3 2 2 2 2 2 2 2 2 2 2 2 3 3 3 2 2 1 1 1 1 0 1 0 0 1 1 1 2 2 2 1 1 1 1 2 2 2 3 3 3
3 3 2 2 2 2 2 2 2 2 2 2 2 3 3 3 3 3 2 2 1 1 1 1 1 0 0 0 1 1 2 2 2 2 1 1 2 2 3 3 2 3 3
3 3 2 2 2 2 2 2 2 2 3 3 3 3 3 3 3 3 2 2 2 2 2 1 1 0 0 0 1 1 1 1 2 3 2 1 2 2 3 3 3 3 2
3 3 2 2 1 1 2 2 2 2 2 3 3 3 3 3 3 3 2 2 2 2 2 1 1 0 1 1 1 1 2 3 3 3 3 2 2 2 2 2 2 2 2
3 3 2 2 2 2 2 2 2 3 3 2 3 3 3 2 3 3 2 2 2 3 3 3 2 2 1 1 1 2 3 3 3 4 3 2 2 3 2 1 2 2 1
3 3 2 2 2 2 2 2 3 3 3 3 3 3 3 3 4 4 3 2 2 3 3 3 3 3 4 3 3 4 4 5 5 4 3 4 3 3 3 3 3 2 1
3 2 2 2 2 1 1 2 3 3 3 3 3 3 3 3 4 4 4 2 2 2 2 3 3 4 4 4 5 6 5 4 4 4 5 4 4 4 5 4 3 2 1
3 2 2 2 2 1 2 2 2 1 2 2 2 3 3 3 4 4 4 3 3 3 2 2 2 3 3 3 4 5 4 4 3 2 3 3 3 4 4 3 3 2 1
2 2 2 2 2 1 2 1 1 1 2 2 2 3 3 3 3 3 3 2 2 3 3 3 2 3 4 4 5 5 5 4 4 5 3 3 4 4 5 4 3 2 1
2 2 1 2 2 1 1 1 1 1 1 2 2 3 3 3 4 3 3 2 2 2 3 3 4 3 3 3 3 4 4 2 3 4 4 4 3 4 5 3 3 2 1
2 2 2 2 1 1 1 1 1 2 2 3 3 3 3 3 3 4 3 1 1 2 2 2 2 3 3 3 3 3 3 3 3 3 3 2 2 2 1 2 2 2 2
2 2 2 2 1 2 2 2 1 2 2 2 2 3 3 3 3 3 4 2 1 1 1 2 2 3 3 3 2 3 4 4 3 3 2 1 1 1 0 1 2 3 3
3 2 2 2 2 2 2 2 1 1 1 1 1 2 2 3 3 4 4 3 3 1 1 1 2 3 3 2 3 3 3 2 2 2 1 0 0 1 1 0 0 1 2
3 2 2 2 2 1 1 1 0 0 0 0 1 1 2 2 2 2 2 2 3 2 2 2 3 3 3 2 2 2 1 1 1 1 1 0 0 0 0 0 0 1 1
2 2 1 1 1 1 1 1 1 2 2 2 2 2 1 2 3 2 1 1 1 1 1 1 2 2 2 2 1 1 0 1 1 1 1 1 1 0 0 0 0 0 1
2 1 1 1 1 1 1 2 2 2 3 3 5 4 3 4 4 3 2 2 2 1 1 1 1 1 1 1 1 1 0 0 0 1 1 1 1 1 1 1 1 1 1
3 2 1 1 1 0 0 1 2 3 2 2 3 4 5 4 4 4 3 2 2 0 0 1 1 1 1 1 1 1 1 1 1 1 1 1 1 1 1 1 1 1 2
3 2 2 1 1 1 1 2 1 2 3 3 2 2 3 4 4 3 2 1 1 0 1 2 2 2 2 2 2 2 2 2 1 1 2 2 2 2 2 2 2 3 3
2 1 1 1 1 1 1 2 1 2 2 3 3 3 2 2 3 3 2 1 2 2 2 3 3 3 3 3 3 3 3 2 2 2 3 3 3 2 3 3 3 4 4
2 3 2 1 1 1 1 1 2 2 2 3 3 3 1 0 1 2 2 3 3 4 4 4 4 4 4 4 3 3 3 3 3 3 3 3 3 3 4 5 4 4 4
2 2 2 1 1 2 2 2 2 2 3 3 4 4 3 3 3 4 3 4 4 5 5 4 4 4 4 4 4 4 5 4 4 4 4 4 4 4 4 4 5 5 5
3 2 2 2 2 2 2 3 3 3 3 4 4 4 5 4 4 4 4 5 5 5 5 5 5 5 5 5 5 5 5 5 5 5 5 5 5 5 5 5 5 5 5
3 3 2 2 2 3 3 3 3 3 4 4 4 4 3 4 4 5 5 5 5 5 5 5 5 6 5 5 5 6 6 7 6 6 6 6 5 5 5 6 7 7 7
3 3 3 3 2 3 3 4 4 4 4 4 4 4 4 4 5 6 6 5 5 5 5 5 6 8 10 7 6 6 7 7 7 6 8 7 7 6 6 6 7 8 8
4 4 3 3 3 3 4 4 4 4 4 4 4 5 5 5 5 5 5 5 6 6 7 7 6 8 11 12 10 8 8 9 8 6 6 6 8 8 8 8 8 8 9
4 4 4 4 4 4 4 5 5 5 5 5 5 5 5 6 6 6 6 5 5 6 7 6 8 10 11 10 11 10 9 9 9 8 7 6 8 8 8 8 10 9 10
Wind_Direction
110 105 97 85 72 63 51 26 10 355 1 3 3 10 10 11 11 19 12 7 2 341 343 306 284 295 247 244 195 183 181 171 178 161 105 103 103 101 82 74 75 75 79
119 109 104 93 76 62 42 16 9 1 3 7 11 16 15 11 13 20 7 1 359 348 335 344 344 25 83 198 167 170 178 177 168 165 134 126 108 116 103 92 83 84 86
116 112 104 82 66 48 31 13 11 12 9 12 23 14 6 8 14 13 14 7 4 355 343 337 322 348 35 133 158 160 164 154 152 151 140 106 105 116 100 88 85 75 79
124 116 107 89 69 47 34 29 20 16 14 12 18 12 7 8 11 11 20 16 9 3 354 342 333 283 217 175 157 153 141 130 133 139 136 124 118 112 116 121 102 79 69
128 117 111 98 74 59 47 36 27 21 20 16 23 20 17 14 9 11 15 18 20 16 10 6 6 20 76 154 163 152 144 139 140 145 145 138 139 143 148 142 127 107 73
125 127 117 99 79 59 42 43 41 29 19 24 23 22 14 10 15 15 17 22 25 25 13 5 15 33 48 64 100 124 145 154 157 157 156 158 161 158 145 143 139 130 125
126 124 116 108 90 67 50 52 46 26 24 20 9 16 12 4 19 24 25 31 35 25 15 10 30 36 46 68 79 84 86 102 142 161 160 169 173 173 156 154 157 144 153
124 122 112 116 104 70 57 48 35 26 21 10 8 13 13 6 23 33 32 41 44 29 21 26 45 42 52 77 86 80 75 72 89 125 158 166 165 162 160 154 146 128 107
121 117 113 127 124 92 64 44 27 34 17 7 5 12 16 1 10 21 35 49 43 26 26 36 48 59 57 80 90 86 75 62 70 85 106 123 134 146 147 135 138 132 100
134 130 126 131 136 118 86 48 30 41 24 19 16 9 11 360 358 16 47 64 52 35 26 28 39 54 67 82 97 103 96 80 82 83 81 82 107 130 152 163 163 152 142
139 127 117 115 129 126 90 72 68 51 43 35 23 5 4 5 3 17 27 62 77 53 30 11 11 34 65 76 91 101 113 114 101 96 90 87 89 103 136 171 188 188 186
124 115 100 83 91 102 97 74 65 66 50 31 21 8 1 2 13 8 16 32 56 74 25 353 359 34 67 88 94 99 107 108 104 100 93 84 83 80 112 222 216 219 227
118 113 96 72 74 97 110 102 61 52 53 18 13 6 350 350 0 12 18 27 36 47 17 20 26 49 72 80 85 101 112 111 109 104 99 84 281 281 294 296 231 222 241
134 127 108 97 72 61 74 109 139 239 276 313 322 327 331 336 348 1 9 18 26 31 19 22 39 54 64 67 71 76 88 133 147 148 167 208 231 203 176 69 30 6 341
137 129 114 109 103 60 25 334 249 242 216 217 238 243 263 298 293 302 330 350 345 344 18 34 39 40 37 33 30 39 69 122 144 167 181 209 242 264 272 193 182 259 284
142 140 136 127 105 85 20 347 341 265 276 249 235 237 248 248 277 302 301 304 324 354 73 47 29 23 8 339 326 337 329 248 222 212 220 229 243 256 271 237 198 220 252
163 169 160 158 170 221 257 288 320 337 333 286 266 260 247 263 275 281 290 299 312 57 67 301 284 280 274 272 263 255 260 258 236 238 241 246 243 246 244 256 251 242 257
162 174 179 199 211 224 239 257 258 281 310 316 307 285 266 261 267 270 281 339 323 190 228 253 265 265 259 258 254 249 259 265 248 245 248 248 242 242 247 250 248 249 260
167 184 194 209 222 232 246 260 264 263 270 285 303 311 297 268 268 263 221 210 245 262 259 260 260 260 257 254 252 246 245 253 256 252 251 247 241 235 245 252 254 253 255
190 207 204 200 231 262 260 262 268 271 276 278 282 285 303 304 270 256 217 223 237 251 255 257 260 256 252 251 249 246 243 247 249 247 250 249 242 235 243 251 253 253 254
199 206 202 202 232 253 265 268 267 265 268 274 272 264 231 231 254 259 253 243 242 249 251 251 254 256 249 243 240 241 243 247 245 244 247 247 245 243 246 247 252 254 259
195 202 207 223 245 259 270 270 271 272 274 275 280 278 248 236 250 257 259 258 253 248 247 247 253 251 246 241 235 234 240 246 246 242 243 245 243 245 247 248 251 255 257
197 208 224 236 244 260 272 274 272 273 274 273 275 276 263 250 253 254 258 260 259 258 252 240 247 254 249 240 234 232 237 243 244 237 237 244 246 245 246 250 255 259 261
203 213 225 236 245 255 265 275 277 276 277 277 273 269 265 257 256 257 257 259 261 262 257 248 246 251 253 248 242 238 239 243 243 239 235 239 245 249 249 251 255 258 261
207 217 227 234 243 253 264 272 277 280 281 277 273 272 271 264 261 261 259 256 258 260 260 255 251 253 255 253 250 247 242 239 239 240 235 236 243 246 249 253 256 261 262
220 228 235 239 243 249 255 265 273 277 278 279 275 271 270 268 266 265 263 260 259 259 261 258 252 253 256 257 255 251 245 242 241 235 233 240 243 248 249 252 257 259 263